Current Version              Previous Version:    01  02  03  04  05  06  07  08  09  10  11  12  13  14  15  16  17  18  19  20  21  22  23  24  25  26  27  28  29  30  
   31  32  33  34  35  36  37  38  39  40  41  42  43  44  45  46  47  48  49  50  51  52  53  54  55  56  57  58  59  60  

[Printable]
116
ASUS44 KEWX 242302
RWRTX
SOUTH TEXAS REGIONAL WEATHER ROUNDUP
NATIONAL WEATHER SERVICE AUSTIN/SAN ANTONIO TX
600 PM CDT FRI OCT 24 2014

NOTE: "FAIR" INDICATED FEW OR NO CLOUDS BELOW 12,000 FEET WITH NO
SIGNIFICANT WEATHER AND/OR OBSTRUCTIONS TO VISIBILITY.

* - THESE STATIONS ARE NOT NWS OR FAA STATIONS...AND ARE NOT SUBJECT
    TO NWS AND FAA QUALITY CONTROL.

TXZ171-172-183>190-250000-
TEXAS HILL COUNTRY AND EDWARDS PLATEAU

CITY           SKY/WX    TMP DP  RH WIND       PRES   REMARKS
JUNCTION       SUNNY     84  55  36 VRB6      30.10S
*LLANO         NOT AVBL
BURNET         CLEAR     83  57  41 SE6       30.12S
*HORSESHOE BAY SUNNY     83  56  39 S5        30.09F
*KERRVILLE     SUNNY     82  58  43 S6        30.12S
*FREDERICKSBRG SUNNY     81  56  42 S3        30.11S
*ROCKSPRINGS   SUNNY     81  55  41 CALM      30.15F
*BOERNE STAGE  MOSUNNY   82  54  36 SE3       30.12S
*CASTROVILLE   MOSUNNY   87  53  31 CALM      30.09S
HONDO          SUNNY     82  57  42 SW8       30.09F
*UVALDE        SUNNY     85  59  40 S6        30.08F
DEL RIO        SUNNY     84  62  47 S7        30.06F
LAUGHLIN AFB   SUNNY     84  65  53 S8        30.07F
CARRIZO SPRGS  SUNNY     86  59  39 CALM      30.05F
$$

TXZ173-191>194-202-209-217>225-228-250000-
CENTRAL AND SOUTH CENTRAL TEXAS

CITY           SKY/WX    TMP DP  RH WIND       PRES   REMARKS
GEORGETOWN     CLEAR     82  59  44 SE5       30.09S
AUSTIN/BERGSTM PTCLDY    83  59  44 E5        30.08S
AUSTIN/MABRY   CLEAR     82  60  47 SE3       30.09S
*AUSTIN/EXEC   CLEAR     82  59  44 E6        30.09F
*LAGO VISTA    CLEAR     82  59  45 S5        30.11F
SAN MARCOS     CLEAR     84  57  39 E7        30.08S
NEW BRAUNFELS  SUNNY     86  56  35 CALM      30.06F
RANDOLPH AFB   SUNNY     83  56  39 S2        30.08S
PT SAN ANTONIO SUNNY     84  57  39 VRB2      30.06F
SAN ANTONIO    MOSUNNY   84  57  39 S5        30.08S
STINSON FIELD  MOSUNNY   86  57  37 SE5       30.06S
*PLEASANTON    SUNNY     85  56  37 NE3       30.07F
*LA GRANGE     CLEAR     83  62  48 CALM      30.07S
*GIDDINGS      CLEAR     81  58  44 E3        30.13S
*GONZALES      CLEAR     85  60  42 CALM      30.07S
$$

TXZ163>164-176>182-195>201-210>213-226-227-235-250000-
SOUTHEAST TEXAS

CITY           SKY/WX    TMP DP  RH WIND       PRES   REMARKS
COLLEGE STN    CLEAR     80  57  45 E6        30.09S
*BRYAN         CLEAR     79  59  51 CALM      30.11S
*CALDWELL      CLEAR     81  55  41 CALM      30.12S
*CROCKETT      CLEAR     81  63  54 CALM      30.13S
*BRENHAM       CLEAR     82  56  41 N3        30.10S
HUNTSVILLE     CLEAR     79  57  46 VRB3      30.10S
CONROE         CLEAR     78  57  48 CALM      30.10S
HOUSTON BUSH   CLEAR     78  56  46 NE6       30.08F
HOUSTON HOBBY  PTCLDY    78  56  46 N6        30.08S
*HOUSTON SW AP CLEAR     73  54  50 NE3       30.09S
PEARLAND       CLEAR     80  55  42 NE5       30.10S
HOUSTON HOOKS  CLEAR     79  56  45 N5        30.09S
ELLINGTON FLD  CLEAR     77  52  41 NE5       30.10S
SUGAR LAND     CLEAR     79  58  48 NE6       30.08S
*HOUSTON EXEC  CLEAR     79 N/A N/A NE8       30.10S
*CLEVELAND MUN NOT AVBL
*WHARTON       CLEAR     81  54  38 NE6       30.09R
*COLUMBUS      FAIR      80  58  47 NE5       30.08S
$$

TXZ214>216-236>238-250000-
THE UPPER TEXAS COAST

CITY           SKY/WX    TMP DP  RH WIND       PRES   REMARKS
*ORANGE        CLEAR     73  49  42 N3        30.11S
PORT ARTHUR    CLEAR     75  49  39 N8        30.08S
GALVESTON      CLEAR     75  55  49 N8        30.09S
ANGLETON       CLEAR     76  54  46 SE5       30.09R
*BAY CITY        N/A     80  57  44 CALM      30.08S
PALACIOS       CLEAR     77  60  55 SE8       30.08R
$$

TXZ229>234-239>247-250000-
TEXAS COASTAL BEND AND RIO GRANDE PLAINS

CITY           SKY/WX    TMP DP  RH WIND       PRES   REMARKS
VICTORIA       CLEAR     84  57  39 E9        30.07S
*BEEVILLE      CLOUDY    85  55  35 SE8       30.06S
ROCKPORT       CLEAR     78  62  57 SE9       30.07S
*PORT ARANSAS  CLEAR     79  62  56 SE7       30.07F
*PORT LAVACA   CLEAR     79  60  51 SE7       30.07S
*INGLESIDE     CLEAR     81  61  49 SE9       30.07S
CORPUS CHRISTI MOSUNNY   80  61  52 E9        30.07S
CORPUS NAS     SUNNY     78  64  61 SE9       30.07F
*ROBSTOWN      HVY RAIN  83  59  43 E9        30.07S
ALICE          SUNNY     85  58  39 E7        30.06S
KINGSVILLE NAS SUNNY     83  61  47 E7        30.07S
COTULLA        SUNNY     89  57  33 VRB3      30.06S
*FAITH RANCH   SUNNY     86  57  37 S6        30.07F
LAREDO         SUNNY     87  60  40 CALM      30.08F
$$

TXZ248>255-250000-
DEEP SOUTH TEXAS

CITY           SKY/WX    TMP DP  RH WIND       PRES   REMARKS
BROWNSVILLE    SUNNY     80  65  59 NE10      30.08R
PORT ISABEL    MOSUNNY   79  63  57 NE9       30.07S
*SOUTH PADRE   SUNNY     81  64  57 NE8       30.07S
HARLINGEN      SUNNY     79  64  60 NE12      30.07R
*HEBBRONVILLE  MOSUNNY   86  56  35 E7        30.08S
MCALLEN        SUNNY     84  62  47 NE9       30.07R
*WESLACO       SUNNY     82  62  49 NE10G16   30.06S
FALFURRIAS     SUNNY     83  59  44 E9        30.06S
EDINBURG       SUNNY     84  61  45 E9        30.07S
*ZAPATA        SUNNY     88  53  30 E3        30.05S
$$

TXZ213>215-236>238-242>244-246-247-251-254-255-250000-
CMAN STATIONS

STATION/POSITION TIME  TEMP    WIND        PRES    WAVE
                       AIR SEA DIR/SP/G            HT/PER
                 (UTC) (F)     (DEG/KT/KT) (MB)    (FT/S)
SABINE PASS      2200   74 72   10/  7/  9 1018.8
SEA RIM ST PARK  2200   75      30/  6/  7 1019.2
NORTH JETTY/GLS  2200   76 76  330/  5/  6   N/A
EAGLE POINT      2200   75 74   20/  4/  5 1018.9
MORGANS POINT    2200   76     160/  2/  5 1018.7
MISSION/ARANSAS  2200          110/ 10     1019.0
PORT O`CONNOR    2200          130/  8/  9   N/A
PORT ARANSAS     2200   76 80   90/  8/  9 1019.8
MALAQUITE BEACH  2200   76 79   80/  8/ 10 1018.1
BAFFIN BAY       2200   77 85   80/  9/ 10 1018.6
PORT ISABEL      2200   78 79   20/  8/ 12 1018.3
$$

GMZ080-GMZ150>470-250000-
OFFSHORE BUOY REPORTS

STATION/POSITION TIME  TEMP    WIND        PRES    WAVE
                       AIR SEA DIR/SP/G            HT/PER
                 (UTC) (F)     (DEG/KT/KT) (MB)    (FT/S)
20 E GALVESTON   2300   72 78  320/  2/  4 1018.7    2/ 7
90 E PT ARANSAS  2300   74 81   20/ 10/ 14 1018.9    3/ 8
35 NE PT MANSFLD 2200   76 80   40/ 10/ 12 1018.1    4/ 8
200 E PT ISABEL  2200   76 81   20/ 12/ 14 1017.1    4/ 7
$$